Regional Weather Roundup
Issued by NWS Binghamton, NY

Home | Current Version | Previous Version | Text Only | Print | Product List | Glossary On
Versions: 1 2 3 4 5 6 7 8 9 10 11 12 13 14 15 16 17 18 19 20 21 22 23 24 25 26 27 28 29 30 31 32 33 34 35 36 37 38 39 40 41 42 43 44 45 46 47 48 49 50
000
ASUS41 KBGM 191110
RWRBGM

REGIONAL WEATHER ROUNDUP
NATIONAL WEATHER SERVICE BINGHAMTON NY
600 AM EST FRI JAN 19 2018

Note: "fair" indicates few or no clouds below 12,000 feet with no
significant weather and/or obstructions to visibility.

* = Station(s) that does not report precipitation, such as rain,
snow, etc, also no thunder or fog.

NYZ009-015>018-022>025-036-037-044>046-055>057-062-191200
...Central New York...

CITY           SKY/WX    TMP DP  RH WIND       PRES   REMARKS
Binghamton     FAIR      16   9  74 SW9       29.91S WCI   4
Cortland       FAIR       5   3  92 CALM      29.95R
Dansville      FAIR      15   9  76 S5        29.97R WCI   8
Elmira         FAIR       6   3  87 CALM      29.98R
Seneca Falls   SUNNY     21  12  68 SW9       29.97S WCI  11
Ithaca         FAIR      11   6  81 SW5       29.96R WCI   3
Hornell        CLEAR     21  10  63 CALM      29.99S
Monticello     FAIR       7   3  84 W6        29.96S WCI  -3
Penn Yan       FAIR      23  11  60 S9        29.95R WCI  13
Rome           FAIR      14  11  87 E3        29.98R
Sidney         CLEAR      1   0  92 CALM      29.98S
Syracuse       MOCLDY    19  12  74 S6        29.95R WCI  11
$$

PAZ038>040-043-044-047-048-072-191200
...Northeast Pennsylvania...

CITY           SKY/WX    TMP DP  RH WIND       PRES   REMARKS
Hazleton       FAIR      23  12  63 W7        30.00S WCI  15
Scranton       FAIR      15   9  76 CALM      30.01R
$$
&&
KEY
WCI = Wind Chill Index
VSB = Visibility
HX  = Heat Index
$$



USA.gov is the U.S. government's official web portal to all federal, state and local government web resources and services.